Regional Weather Roundup
Issued by NWS Goodland, KS

Home | Current Version | Previous Version | Text Only | Print | Product List | Glossary Off
Versions: 1 2 3 4 5 6 7 8 9 10 11 12 13 14 15 16 17 18 19 20 21 22 23 24 25 26 27 28 29 30 31 32 33 34 35 36 37 38 39 40 41 42 43 44 45 46 47 48 49 50

000
ASUS43 KGLD 242208
RWRGLD

GOODLAND FORECAST AREA HOURLY WEATHER ROUNDUP
NATIONAL WEATHER SERVICE GOODLAND KS
400 PM MDT WED MAY 24 2017

...OFFICIAL OBSERVATIONS...

CITY           SKY/WX    TMP DP  RH WIND       PRES   REMARKS
GOODLAND KS    SUNNY     75  43  31 S12       29.63F
HILL CITY KS   SUNNY     70  39  32 SE6       29.69F
IMPERIAL NEB   SUNNY     73  44  35 S14G26    29.60F
MCCOOK NEB     SUNNY     73  43  33 S14G20    29.64F
AKRON CO       SUNNY     80  39  23 SW10G18   29.61F
BURLINGTON CO  SUNNY     75  47  36 S9G22     29.66F
LIMON CO       MOSUNNY   78  39  24 S14G22    29.68F
$$

...UNOFFICIAL OBSERVATIONS...

CITY           SKY/WX    TMP DP  RH WIND       PRES   REMARKS
LENORA KS        N/A     73  32  22 MISG        N/A
NORTON KS      SUNNY     68  37  32 S5        29.67F
SHARON SPRINGS   N/A     76  48  36 S10G18      N/A
TRENTON NEB      N/A     73  32  22 S9          N/A
KIT CARSON CO    N/A     77  46  32 MISG        N/A
$$




USA.gov is the U.S. government's official web portal to all federal, state and local government web resources and services.